Search for airport 
image banner adimage banner adimage banner ad
image banner ad

67L - Mesquite

Located in Mesquite, United States

ICAO - 67L, IATA -

Data provided by Airmate  

General information

Coordinates: N36°49'59" W114°3'21"
Elevation is 1978 feet MSL.
Magnetic variation is 11° East
View others Airports in Nevada

Operational data

Special qualification required
Current time UTC:
Current local time:
Weather at : KSGU - St George Rgnl ( 53 km )
METAR: KSGU 231256Z AUTO 17003KT 10SM CLR 17/M04 A3002 RMK AO2 SLP134 T01721039
TAF: KSGU 231120Z 2312/2412 VRB05KT P6SM SCT220 FM231900 25010KT P6SM FEW220 FM240200 02008KT P6SM FEW220
View NOTAMs / SUP AIP / TFR affecting this airport [VIEW]
Communications frequencies: [VIEW]

Runways:

RWY identifierQFULength (ft)Width (ft)SurfaceLDA (ft)
02512175ASPH
20512175ASPH

Airport contact information

Address: Mesquite United States

Satellite view of 67L